Waterford, MI

3:56 AM EST on February 21, 2017 (GMT -0500)
Oakland County International

Weather History for KPTK - December, 2012

Change the Weather History Date:

Wednesday, December 26, 2012

  Actual Average Record
Temperature  
Mean Temperature 26 °F -  
Max Temperature 28 °F 29 °F 54 °F (2016)
Min Temperature 24 °F 17 °F 8 °F (2000)
Degree Days  
Heating Degree Days 39    
Moisture  
Dew Point 23 °F    
Average Humidity 86    
Maximum Humidity 93    
Minimum Humidity 74    
Precipitation  
Precipitation 0.04 in - - ()
Snow  
Snow 0.00 in - - ()
Snow Depth 5.00 in    
Sea Level Pressure  
Sea Level Pressure 29.94 in    
Wind  
Wind Speed 13 mph (NNE)    
Max Wind Speed 21 mph    
Max Gust Speed 30 mph    
Visibility 3 miles    
Events Fog , Snow    
Averages and records for this station are not official NWS values.
T = Trace of Precipitation, MM = Missing Value Source: NWS Daily Summary

Daily Weather History Graph

Daily Weather History Graph

Search for Another Location

Airport or City:

Trip Planner

Search our weather history database for the weather conditions in past years. The results will help you decide how hot, cold, wet, or windy it might be!

Date:

Astronomy

Dec. 26, 2012 Rise Set
Actual Time 8:02 AM EST 5:06 PM EST
Civil Twilight 7:30 AM EST 5:38 PM EST
Nautical Twilight 6:55 AM EST 6:14 PM EST
Astronomical Twilight 6:20 AM EST 6:48 PM EST
Moon 3:59 PM EST (12/26) 6:24 AM EST (12/26)
Length of Visible Light 10h 07m
Length of Day
9h 03m
Waxing Gibbous, 97% of the Moon is Illuminated
Dec 26
Waxing Gibbous
Dec 28
Full
Jan 4
Last Quarter
Jan 11
New
Jan 18
First Quarter

Hourly Weather History & Observations

Time (EST) Temp. Windchill Dew Point Humidity Pressure Visibility Wind Dir Wind Speed Gust Speed Precip Events Conditions
12:18 AM 28.4 °F 18.5 °F 24.8 °F 86% 30.25 in 4.0 mi NE 11.5 mph - 0.00 in   Overcast
12:53 AM 28.0 °F 18.6 °F 25.0 °F 88% 30.28 in 7.0 mi ENE 10.4 mph - 0.00 in   Overcast
1:53 AM 28.0 °F 19.3 °F 25.0 °F 88% 30.25 in 10.0 mi NE 9.2 mph - N/A   Overcast
2:29 AM 28.4 °F 18.0 °F 24.8 °F 86% 30.20 in 10.0 mi ENE 12.7 mph - N/A   Overcast
2:53 AM 28.0 °F 17.0 °F 23.0 °F 81% 30.24 in 10.0 mi ENE 13.8 mph - N/A   Overcast
3:02 AM 28.4 °F 17.0 °F 21.2 °F 74% 30.20 in 10.0 mi ENE 15.0 mph 23.0 mph N/A   Overcast
3:53 AM 28.0 °F 19.3 °F 21.9 °F 78% 30.21 in 10.0 mi NE 9.2 mph - N/A   Overcast
4:13 AM 28.4 °F 17.5 °F 21.2 °F 74% 30.14 in 10.0 mi NE 13.8 mph - N/A   Overcast
4:34 AM 28.4 °F 18.5 °F 21.2 °F 74% 30.13 in 10.0 mi NE 11.5 mph - N/A   Overcast
4:44 AM 28.4 °F 18.0 °F 21.2 °F 74% 30.12 in 10.0 mi NE 12.7 mph - N/A   Overcast
4:53 AM 28.0 °F 18.1 °F 21.0 °F 75% 30.15 in 10.0 mi NE 11.5 mph - N/A   Overcast
5:53 AM 28.0 °F 17.0 °F 21.0 °F 75% 30.14 in 10.0 mi NE 13.8 mph 19.6 mph N/A   Overcast
6:53 AM 28.0 °F 18.6 °F 21.0 °F 75% 30.13 in 10.0 mi NE 10.4 mph 19.6 mph N/A   Overcast
7:53 AM 28.0 °F 18.1 °F 21.0 °F 75% 30.11 in 10.0 mi NE 11.5 mph - N/A   Overcast
8:53 AM 28.0 °F 17.5 °F 21.0 °F 75% 30.09 in 10.0 mi NE 12.7 mph - N/A   Overcast
9:53 AM 28.0 °F 16.1 °F 21.0 °F 75% 30.06 in 10.0 mi NE 16.1 mph - N/A   Overcast
10:53 AM 28.0 °F 14.9 °F 21.9 °F 78% 30.00 in 10.0 mi NE 19.6 mph 29.9 mph N/A   Overcast
11:48 AM 28.4 °F 16.2 °F 23.0 °F 80% 29.94 in 9.0 mi NE 17.3 mph 27.6 mph 0.00 in Snow Light Snow
11:53 AM 28.0 °F 17.0 °F 23.0 °F 81% 29.97 in 9.0 mi NE 13.8 mph 27.6 mph 0.00 in Snow Light Snow
12:53 PM 28.0 °F 15.7 °F 24.1 °F 85% 29.94 in 8.0 mi NE 17.3 mph 28.8 mph 0.00 in Snow Light Snow
12:57 PM 28.4 °F 16.2 °F 24.8 °F 86% 29.91 in 1.5 mi NE 17.3 mph 28.8 mph 0.00 in Snow Light Snow
1:10 PM 26.6 °F 14.3 °F 24.8 °F 93% 29.90 in 0.5 mi NE 16.1 mph 25.3 mph 0.00 in Fog , Snow Snow
1:19 PM 26.6 °F 13.1 °F 24.8 °F 93% 29.89 in 0.2 mi NE 19.6 mph 25.3 mph 0.00 in Fog , Snow Snow
1:39 PM 26.6 °F 14.7 °F 24.8 °F 93% 29.89 in 0.5 mi NE 15.0 mph 20.7 mph 0.01 in Fog , Snow Snow
1:53 PM 27.0 °F 15.2 °F 25.0 °F 92% 29.92 in 0.5 mi NE 15.0 mph - 0.01 in Fog , Snow Snow
2:10 PM 26.6 °F 14.7 °F 24.8 °F 93% 29.87 in 0.5 mi NE 15.0 mph 23.0 mph 0.00 in Snow Snow
2:20 PM 26.6 °F 15.7 °F 24.8 °F 93% 29.87 in 0.5 mi NNE 12.7 mph 23.0 mph 0.00 in Snow Snow
2:34 PM 26.6 °F 15.7 °F 24.8 °F 93% 29.86 in 0.2 mi NNE 12.7 mph - 0.00 in Snow Heavy Snow
2:53 PM 27.0 °F 16.1 °F 24.1 °F 89% 29.90 in 0.2 mi NE 12.7 mph 21.9 mph 0.00 in Snow Heavy Snow
3:18 PM 26.6 °F 14.3 °F 24.8 °F 93% 29.86 in 0.5 mi NNE 16.1 mph 23.0 mph N/A Snow Snow
3:34 PM 26.6 °F 14.3 °F 24.8 °F 93% 29.86 in 0.8 mi NNE 16.1 mph 20.7 mph 0.00 in Snow Light Snow
3:46 PM 26.6 °F 13.4 °F 24.8 °F 93% 29.86 in 0.2 mi NNE 18.4 mph 25.3 mph 0.01 in Snow Heavy Snow
3:49 PM 26.6 °F 13.8 °F 23.0 °F 86% 29.86 in 0.5 mi NNE 17.3 mph 25.3 mph 0.01 in Snow Snow
3:53 PM 26.1 °F 14.5 °F 23.0 °F 88% 29.90 in 0.5 mi NNE 13.8 mph 23.0 mph 0.01 in Snow Snow
4:00 PM 26.6 °F 13.8 °F 23.0 °F 86% 29.86 in 0.5 mi NNE 17.3 mph 21.9 mph 0.00 in Snow Snow
4:04 PM 26.6 °F 13.1 °F 23.0 °F 86% 29.86 in 0.2 mi NNE 19.6 mph 26.5 mph 0.00 in Snow Heavy Snow
4:48 PM 24.8 °F 11.5 °F 21.2 °F 86% 29.84 in 0.5 mi NNE 17.3 mph 26.5 mph 0.00 in Snow Snow
4:53 PM 25.0 °F 10.9 °F 21.9 °F 88% 29.88 in 0.5 mi NNE 19.6 mph 28.8 mph 0.00 in Snow Snow
5:06 PM 24.8 °F 10.3 °F 21.2 °F 86% 29.84 in 1.2 mi NNE 20.7 mph 27.6 mph N/A Snow Light Snow
5:20 PM 24.8 °F 14.0 °F 21.2 °F 86% 29.84 in 1.2 mi NNE 11.5 mph 27.6 mph 0.00 in Snow Light Snow
5:31 PM 24.8 °F 11.9 °F 21.2 °F 86% 29.84 in 1.2 mi NNE 16.1 mph 24.2 mph 0.00 in Snow Light Snow
5:53 PM 25.0 °F 11.7 °F 21.9 °F 88% 29.88 in 1.2 mi NE 17.3 mph 21.9 mph 0.00 in Snow Light Snow
6:01 PM 24.8 °F 12.9 °F 21.2 °F 86% 29.84 in 1.5 mi NE 13.8 mph 25.3 mph 0.00 in Snow Light Snow
6:21 PM 24.8 °F 11.5 °F 21.2 °F 86% 29.85 in 1.2 mi NNE 17.3 mph - 0.00 in Snow Light Snow
6:43 PM 24.8 °F 12.9 °F 21.2 °F 86% 29.84 in 2.0 mi NNE 13.8 mph 21.9 mph 0.00 in Snow Light Snow
6:53 PM 25.0 °F 13.6 °F 21.9 °F 88% 29.88 in 2.0 mi NNE 12.7 mph - 0.00 in Snow Light Snow
7:00 PM 24.8 °F 11.9 °F 21.2 °F 86% 29.84 in 1.5 mi NNE 16.1 mph 21.9 mph N/A Snow Light Snow
7:23 PM 24.8 °F 12.9 °F 21.2 °F 86% 29.85 in 1.0 mi North 13.8 mph 19.6 mph 0.00 in Snow Light Snow
7:39 PM 24.8 °F 14.6 °F 21.2 °F 86% 29.85 in 1.8 mi North 10.4 mph - 0.00 in Snow Light Snow
7:48 PM 24.8 °F 12.9 °F 21.2 °F 86% 29.85 in 2.0 mi North 13.8 mph - 0.00 in Snow Light Snow
7:53 PM 25.0 °F 14.2 °F 21.9 °F 88% 29.89 in 2.0 mi North 11.5 mph - 0.00 in Snow Light Snow
8:00 PM 24.8 °F 14.0 °F 21.2 °F 86% 29.86 in 1.5 mi North 11.5 mph 19.6 mph 0.00 in Snow Light Snow
8:10 PM 24.8 °F 12.9 °F 21.2 °F 86% 29.86 in 1.5 mi North 13.8 mph - 0.00 in Snow Light Snow
8:20 PM 24.8 °F 13.4 °F 21.2 °F 86% 29.85 in 1.2 mi North 12.7 mph - 0.00 in Snow Light Snow
8:38 PM 24.8 °F 13.4 °F 21.2 °F 86% 29.85 in 1.0 mi North 12.7 mph - 0.00 in Snow Light Snow
8:45 PM 24.8 °F 12.9 °F 21.2 °F 86% 29.85 in 0.8 mi North 13.8 mph - 0.01 in Snow Light Snow
8:53 PM 25.0 °F 13.6 °F 21.9 °F 88% 29.88 in 0.8 mi North 12.7 mph - 0.01 in Snow Light Snow
9:01 PM 24.8 °F 14.0 °F 23.0 °F 93% 29.85 in 0.8 mi North 11.5 mph - 0.00 in Snow Light Snow
9:20 PM 24.8 °F 14.6 °F 23.0 °F 93% 29.85 in 1.0 mi North 10.4 mph - 0.00 in Snow Light Snow
9:53 PM 26.1 °F 15.0 °F 23.0 °F 88% 29.88 in 1.0 mi North 12.7 mph - 0.00 in Snow Light Snow
10:19 PM 26.6 °F 15.7 °F 24.8 °F 93% 29.83 in 0.8 mi North 12.7 mph - 0.00 in Snow Light Snow
10:44 PM 26.6 °F 16.2 °F 24.8 °F 93% 29.83 in 1.0 mi North 11.5 mph - 0.00 in Snow Light Snow
10:53 PM 27.0 °F 15.6 °F 24.1 °F 89% 29.87 in 1.2 mi North 13.8 mph - 0.00 in Snow Light Snow
11:04 PM 26.6 °F 18.2 °F 24.8 °F 93% 29.84 in 1.2 mi North 8.1 mph - 0.00 in Snow Light Snow
11:14 PM 26.6 °F 15.7 °F 24.8 °F 93% 29.84 in 1.8 mi North 12.7 mph 18.4 mph 0.01 in Snow Light Snow
11:23 PM 26.6 °F 17.5 °F 24.8 °F 93% 29.84 in 2.0 mi North 9.2 mph - 0.01 in Snow Light Snow
11:30 PM 26.6 °F 16.8 °F 24.8 °F 93% 29.84 in 1.8 mi North 10.4 mph - 0.01 in Snow Light Snow
11:48 PM 26.6 °F 16.8 °F 24.8 °F 93% 29.85 in 0.8 mi North 10.4 mph - 0.01 in Snow Light Snow
11:53 PM 27.0 °F 16.1 °F 25.0 °F 92% 29.88 in 0.8 mi North 12.7 mph 18.4 mph 0.01 in Snow Light Snow
11:59 PM 26.6 °F 15.7 °F 24.8 °F 93% 29.85 in 1.0 mi North 12.7 mph 18.4 mph 0.01 in Snow Light Snow